SCP
0 0 0 0 0 0 0 0 0 0 0 0 -0 -0 -0 -0 -0 -0 -0 -0 -0 -0 -0 -0 -0 -0 -0 0 0 0 0 -0 0 0 0 0 0 0 0 0 0 0 0 0
0 0 0 0 0 0 0 0 0 0 0 0 0 0 0 -0 -0 -0 -0 -0 -0 -0 -0 -0 -0 -0 -0 0 0 0 0 0 0 0 0 0 0 0 0 0 0 0 0 0
0 0 0 0 0 0 0 0 0 0 0 0 0 0 0 0 0 -0 -0 -0 -0 -0 -0 -0 -0 -0 -0 0 0 0 0 0 0 0 0 0 0 0 0 0 0 0 0 0
0 0 0 0 0 0 0 0 0 0 0 0 0 0 0 0 0 -0 -0 -0 -0 -0 -0 -0 -0 -0 -0 -0 0 0 0 0 0 0 0 0 0 0 0 0 0 0 0 0
0 0 0 0 0 0 0 0 0 0 0 0 0 0 0 0 0 -0 -0 -0 -0 -0 -0 -0 -0 -0 -0 0 0 0 0 0 0 0 0 0 0 0 0 0 0 0 0 0
0 0 0 0 0 0 0 0 0 0 0 0 0 0 0 0 0 0 -0 -0 -0 -0 -0 -0 0 -0 -0 0 0 0 0 0 0 0 0 0 0 0 0 0 0 0 0 0
0 0 0 0 0 0 0 0 0 0 0 0 0 0 0 0 0 0 -0 -0 -0 -0 -0 -0 -0 -0 0 0 0 0 0 0 0 0 0 0 0 0 0 0 0 0 0 0
0 0 0 0 0 0 0 0 0 0 0 0 0 0 0 0 0 0 -0 -0 -0 -0 -0 -0 -0 -0 -0 0 0 0 0 0 0 0 0 0 0 0 0 0 0 0 0 0
0 0 0 0 0 0 0 0 0 0 0 0 0 0 0 0 0 -0 -0 -0 -0 -0 -0 -0 -0 -0 -0 0 0 0 0 0 0 0 0 0 0 0 0 0 0 0 0 0
0 0 0 0 0 0 0 0 0 0 0 0 0 0 0 0 0 0 0 0 -0 -0 -0 -0 -0 -0 -0 0 0 0 0 0 0 0 0 0 0 0 0 0 0 0 0 0
0 0 0 0 0 0 0 0 0 0 0 0 0 0 0 0 0 0 0 0 0 -0 -0 -0 -0 -0 -0 -0 -0 0 0 0 0 0 0 0 0 0 0 0 0 0 0 0
0 0 0 0 0 0 0 0 0 0 0 0 0 0 0 0 0 0 0 0 0 -0 -0 -0 -0 -0 -0 -0 -0 0 0 0 0 0 0 0 0 0 0 0 0 0 0 0
0 0 0 0 0 0 0 0 0 0 0 0 0 0 0 0 0 0 0 0 0 -0 -0 -0 -0 -0 -0 -0 -0 0 0 0 0 0 0 0 0 0 0 0 0 0 0 0
0 0 0 0 0 0 0 0 0 0 0 0 0 0 0 0 0 0 0 0 0 0 -0 -0 -0 -0 -0 -0 0 0 0 0 0 0 0 0 0 0 0 0 0 0 0 0
0 0 0 0 0 0 0 0 0 0 0 0 0 0 0 0 0 0 0 0 0 -0 -0 -0 -0 -0 -0 -0 0 0 0 0 0 0 0 0 0 0 0 0 0 0 0 0
0 0 0 0 0 0 0 0 0 0 0 0 0 0 0 0 0 0 0 0 -0 -0 -0 -0 -0 -0 -0 0 0 0 0 0 0 0 0 0 0 0 0 0 0 0 0 0
0 0 0 0 0 0 0 0 0 0 0 0 0 0 0 0 0 0 0 0 -0 -0 -0 -0 -0 -0 0 0 0 0 0 0 0 0 0 0 0 0 0 0 0 0 0 0
0 0 0 0 0 0 0 0 0 0 -0 -0 -0 -0 0 0 -0 -0 -0 -0 -0 -0 -0 -0 -0 0 0 0 0 0 0 0 0 0 0 0 0 0 0 0 0 0 0 0
-0 -0 -0 -0 -0 0 0 -0 -0 -0 -0 -0 -0 -0 -0 -0 -0 -0 -0 -0 -0 -0 -0 -0 0 0 0 0 0 0 0 0 0 0 0 0 0 0 0 0 0 0 0 0
-0 -0 -0 -0 -0 -0 -0 -0 -0 -0 -0 -0 0 -0 -0 -0 -0 -0 -0 -0 -0 -0 0 0 0 0 0 0 0 0 0 0 0 0 0 0 0 0 0 0 0 0 0 0
-0 -0 -0 -0 -0 -0 -0 -0 -0 -0 -0 -0 -0 -0 0 -0 -0 -0 -0 0 0 0 0 0 0 0 0 0 0 0 0 0 0 0 0 0 0 0 0 0 0 0 0 0
0 0 0 0 0 -0 -0 -0 -0 -0 -0 0 -0 -0 -0 -0 0 0 0 0 0 0 0 0 0 0 0 0 0 0 0 0 0 0 0 0 0 0 0 0 0 0 0 0
0 -0 -0 -0 -0 -0 -0 -0 -0 -0 -0 -0 0 0 0 0 0 0 0 0 0 0 0 0 0 0 0 0 0 0 0 0 0 0 0 0 0 0 0 0 0 0 0 0
0 0 0 -0 -0 -0 -0 -0 -0 0 0 0 0 0 0 0 0 0 0 0 0 0 0 0 0 0 0 0 0 0 0 0 0 0 0 0 0 0 0 0 0 0 0 0
0 0 0 -0 -0 -0 0 0 0 0 0 0 0 0 0 0 0 0 0 0 0 0 0 0 0 0 0 0 0 0 0 0 0 0 0 0 0 0 0 0 0 0 0 0
0 0 0 0 0 0 0 0 0 0 0 0 0 0 0 0 0 0 0 0 0 0 0 0 0 0 0 0 0 0 0 0 0 0 0 0 0 0 0 0 0 0 0 0
0 0 0 0 0 0 0 0 0 0 0 0 0 0 0 0 0 0 -0 -0 -0 -0 0 0 0 0 0 0 0 0 0 0 0 0 0 0 0 0 0 0 0 0 0 0
Wind_Speed_500mb
12 12 11 25 28 20 18 12 13 38 18 34 17 25 52 60 50 58 57 49 44 54 68 69 70 70 69 65 55 47 38 36 40 48 59 65 69 75 78 75 69 61 56 51
11 13 20 31 35 32 30 22 22 34 49 14 36 42 49 59 64 54 51 58 38 55 63 64 70 71 71 69 61 56 47 39 41 44 55 64 69 73 79 79 74 67 61 55
17 12 9 21 34 41 30 13 20 27 41 6 14 26 43 62 62 46 41 51 46 56 61 64 70 74 75 71 65 63 58 46 41 49 55 62 68 74 83 84 77 72 66 58
14 4 25 19 13 25 37 36 28 28 28 21 35 50 73 52 44 33 41 53 54 61 63 65 70 77 78 70 68 66 64 58 46 48 58 61 68 75 84 86 80 74 68 61
17 22 29 28 10 13 16 28 23 25 37 39 52 42 33 48 34 35 48 50 61 60 62 69 72 77 82 75 70 66 63 61 51 47 59 66 71 76 84 87 84 79 71 64
22 21 35 31 33 65 39 34 39 58 36 39 39 13 16 51 33 38 50 56 59 57 60 70 72 75 83 81 72 65 63 58 52 46 54 69 70 76 82 88 86 82 73 65
32 37 27 27 47 8 16 26 45 39 46 35 16 34 45 25 32 43 53 57 53 55 63 67 71 74 81 82 73 64 63 57 49 45 51 59 66 74 84 90 89 82 75 67
14 28 40 51 22 24 41 43 50 53 51 45 50 50 36 44 44 51 52 57 59 61 67 67 70 72 78 83 76 66 62 56 49 43 45 53 66 74 83 89 89 83 77 70
15 16 18 24 38 54 44 39 43 51 53 50 51 56 48 51 52 54 55 62 62 62 66 70 72 70 76 82 80 70 63 54 46 42 43 50 63 74 81 88 88 85 81 74
9 16 39 64 66 60 67 60 53 57 59 61 64 67 64 57 56 54 60 61 62 60 67 74 75 70 73 79 77 69 62 54 40 40 41 48 58 71 79 89 90 87 82 77
14 30 37 49 62 64 60 58 62 51 57 64 65 71 66 63 56 53 59 63 57 60 67 77 73 72 74 74 71 66 57 48 37 37 38 47 56 72 80 85 88 86 80 77
25 48 39 46 56 39 34 45 45 49 56 58 60 64 60 51 49 52 56 58 60 65 71 73 73 74 73 69 64 59 53 42 33 32 36 44 50 63 69 75 77 77 73 68
19 32 42 42 27 21 32 29 25 27 28 36 37 39 34 38 47 56 62 63 61 64 70 73 73 76 68 65 58 50 46 39 33 32 36 43 49 57 67 70 67 69 67 63
19 34 27 25 25 42 43 47 46 44 43 43 44 44 47 50 60 65 66 61 61 66 71 72 73 76 62 59 54 45 38 33 31 33 38 41 46 51 58 67 69 70 69 67
26 31 29 32 40 42 43 48 52 52 52 52 48 50 48 55 63 66 62 59 63 68 70 70 69 66 55 52 48 38 30 28 25 26 32 35 42 46 50 55 57 58 59 62
40 30 28 40 43 43 46 46 52 55 55 57 57 54 53 55 59 61 60 61 62 63 61 58 59 49 47 42 36 27 23 20 17 16 25 31 35 41 44 47 49 49 51 54
44 49 56 58 58 62 60 57 55 55 56 53 53 52 52 53 53 52 51 47 47 47 46 48 42 40 35 29 21 18 18 21 22 20 24 29 34 36 38 41 43 45 46 41
29 36 41 47 57 62 65 58 53 51 52 52 48 46 45 43 43 40 35 35 37 40 38 35 34 29 24 20 15 14 19 27 28 30 31 33 37 40 41 43 44 45 46 46
39 46 47 49 49 52 54 52 50 48 45 42 41 37 34 31 30 28 26 28 29 29 27 25 22 17 16 17 19 22 25 29 34 36 36 39 41 42 44 45 43 40 38 39
50 49 49 49 43 42 46 43 45 42 38 36 29 26 25 22 17 13 11 11 12 14 14 12 11 14 16 19 23 26 29 34 39 42 43 44 45 47 45 41 39 37 36 35
57 51 45 45 41 35 34 36 36 33 30 26 20 16 15 10 6 5 4 2 3 3 6 10 14 19 21 23 27 34 38 42 43 44 43 44 45 45 43 42 41 39 38 35
50 46 39 34 32 30 29 30 27 24 21 16 12 10 10 11 13 12 11 17 17 17 18 20 24 25 28 31 37 41 45 48 50 52 53 53 54 55 55 53 52 50 47 45
37 33 28 26 26 25 24 22 22 20 17 17 16 16 16 17 19 23 31 32 34 33 37 39 39 40 44 50 54 57 59 61 63 63 62 61 60 59 58 56 54 50 47 45
26 22 23 20 19 16 18 21 21 22 22 23 26 29 30 34 38 42 43 42 45 48 51 50 49 50 53 58 61 63 65 65 65 63 62 61 61 60 58 56 54 51 49 46
24 21 19 16 17 20 20 20 22 25 27 30 32 34 38 41 45 44 42 43 46 49 53 52 53 56 60 63 65 66 66 65 64 62 61 60 58 57 55 52 50 48 45 42
21 22 22 21 22 22 23 22 26 29 30 33 35 36 36 37 40 42 43 46 48 51 53 54 54 56 59 60 61 61 61 59 57 55 53 51 48 46 43 41 38 36 32 30
21 19 20 23 25 23 22 22 22 25 23 25 29 32 34 36 37 38 40 42 45 48 50 51 51 51 51 50 50 49 47 45 43 40 38 36 33 30 28 25 23 19 17 15
Wind_Direction_500mb
250 265 279 274 268 252 223 202 206 269 264 271 278 289 303 314 313 321 333 338 346 342 340 338 336 337 338 336 335 334 318 274 252 250 250 245 239 233 228 223 220 219 217 217
279 241 250 261 256 253 251 231 240 259 265 267 265 278 290 296 301 304 321 328 328 342 337 334 334 334 331 331 328 327 321 301 267 246 248 245 240 234 227 222 219 216 216 219
256 227 271 279 238 238 241 216 204 242 254 288 268 271 270 287 292 285 308 313 311 333 333 332 331 332 329 328 325 322 318 307 284 251 242 242 238 232 226 222 219 217 216 217
253 51 249 258 187 215 226 234 229 253 261 247 239 272 285 286 286 274 295 301 308 323 325 328 328 327 325 325 322 319 316 310 292 260 240 237 235 231 225 222 220 219 217 217
243 231 264 284 280 226 203 252 233 238 249 256 270 277 273 291 253 261 293 299 307 313 316 323 325 324 324 322 319 317 315 308 297 266 243 234 231 227 223 221 219 219 218 218
241 246 252 261 255 245 252 260 256 248 265 263 263 252 257 278 257 283 294 301 306 305 307 315 320 320 323 321 316 316 314 306 295 270 246 236 230 225 221 220 220 219 218 218
243 256 253 250 260 167 220 247 250 243 248 258 252 258 272 266 273 291 303 304 303 299 304 309 315 316 321 320 314 314 312 303 291 269 247 238 231 225 221 219 220 219 219 219
256 259 266 233 264 208 245 261 265 270 265 262 272 276 259 266 278 304 304 300 298 294 301 306 311 314 319 319 315 309 309 302 284 266 249 238 229 225 220 220 220 219 218 217
246 250 279 273 233 254 252 255 267 266 272 275 276 279 264 268 284 302 298 299 301 301 300 301 309 312 316 319 314 306 308 304 282 263 249 240 231 224 221 218 220 220 219 218
317 271 249 269 286 283 277 278 274 279 282 282 274 277 269 269 283 293 294 298 303 303 297 301 306 308 313 316 311 301 304 302 280 256 248 240 234 226 221 217 217 219 219 220
261 281 280 257 258 267 280 286 287 286 282 281 278 276 273 276 280 286 292 295 297 298 294 299 300 304 311 314 307 298 300 298 277 253 247 241 234 228 220 220 221 219 220 222
266 278 281 283 297 310 293 291 293 298 295 292 278 275 273 273 281 286 287 288 294 295 295 294 296 302 308 310 301 293 295 295 267 254 247 241 232 230 227 226 223 225 228 231
280 285 290 299 309 299 324 312 308 302 293 282 280 282 287 280 279 285 286 289 290 290 289 291 294 299 305 304 294 286 286 284 263 240 245 237 230 229 223 219 217 223 225 224
295 323 307 309 314 311 307 302 300 296 292 286 283 281 281 279 281 280 282 286 283 283 286 290 292 297 302 294 286 280 275 269 260 235 231 231 229 225 224 221 211 209 212 215
331 337 313 309 308 309 310 310 306 303 300 295 290 291 287 282 278 279 281 279 279 282 286 288 292 295 295 285 279 272 263 261 254 234 217 221 223 220 219 218 215 213 211 211
327 334 330 330 331 328 324 320 319 315 309 303 299 294 290 285 283 283 283 277 277 281 283 287 289 295 288 275 268 256 248 239 240 224 201 201 207 209 206 208 207 207 205 207
342 339 334 328 327 324 324 324 320 317 314 310 306 301 297 293 288 287 284 279 277 279 284 285 291 286 277 262 246 239 221 193 194 189 177 177 182 187 191 193 193 193 199 204
324 317 314 311 313 315 316 320 319 317 315 313 310 307 305 299 297 293 284 274 275 280 278 281 284 274 257 231 210 211 196 185 177 174 166 163 165 171 175 176 175 177 176 179
327 320 315 312 314 311 314 317 318 318 317 314 310 308 310 309 301 294 285 279 274 269 267 272 267 243 227 209 194 190 175 168 163 156 155 154 156 157 160 163 163 166 169 172
322 317 316 315 315 313 314 318 322 323 323 321 315 304 306 306 305 306 303 289 278 263 255 238 215 201 194 174 172 167 164 159 151 147 148 149 150 150 152 156 157 159 161 164
322 323 319 318 320 322 322 326 327 330 334 334 335 332 334 334 330 318 321 357 34 134 154 158 162 156 150 149 150 148 149 145 143 141 142 140 139 136 136 137 138 138 138 141
323 323 326 325 327 331 333 335 340 343 347 354 4 15 30 62 68 66 76 87 85 100 112 124 125 125 128 134 133 132 128 126 125 125 124 124 123 122 121 121 120 120 120 119
325 328 334 338 341 342 344 354 9 14 24 39 47 56 65 75 85 97 91 89 94 97 101 102 104 111 116 116 115 114 113 113 113 113 113 113 113 113 113 113 112 112 112 112
340 344 344 348 357 10 24 31 36 42 51 64 72 78 83 89 89 87 88 91 93 97 95 96 101 105 107 108 109 109 110 109 109 109 109 109 109 108 107 107 107 106 104 104
3 4 9 15 27 37 45 52 64 72 78 82 85 88 90 88 86 86 89 93 97 98 98 102 105 106 105 105 105 104 104 104 104 105 105 105 105 105 104 104 103 102 102 101
8 20 29 40 48 54 62 72 80 82 84 86 85 86 91 94 97 100 101 102 102 102 102 103 102 102 102 103 103 103 102 102 103 102 102 101 101 101 100 100 99 98 97 95
36 47 54 62 67 69 75 78 79 78 81 88 93 96 98 101 102 104 105 106 107 106 106 106 105 104 104 103 103 103 102 102 101 100 100 100 99 98 98 97 95 96 94 90
Wind_Speed_850mb
12 12 11 25 28 20 18 12 13 38 18 34 17 25 52 60 50 58 57 49 44 54 68 69 70 70 69 65 55 47 38 36 40 48 59 65 69 75 78 75 69 61 56 51
11 13 20 31 35 32 30 22 22 34 49 14 36 42 49 59 64 54 51 58 38 55 63 64 70 71 71 69 61 56 47 39 41 44 55 64 69 73 79 79 74 67 61 55
17 12 9 21 34 41 30 13 20 27 41 6 14 26 43 62 62 46 41 51 46 56 61 64 70 74 75 71 65 63 58 46 41 49 55 62 68 74 83 84 77 72 66 58
14 4 25 19 13 25 37 36 28 28 28 21 35 50 73 52 44 33 41 53 54 61 63 65 70 77 78 70 68 66 64 58 46 48 58 61 68 75 84 86 80 74 68 61
17 22 29 28 10 13 16 28 23 25 37 39 52 42 33 48 34 35 48 50 61 60 62 69 72 77 82 75 70 66 63 61 51 47 59 66 71 76 84 87 84 79 71 64
22 21 35 31 33 65 39 34 39 58 36 39 39 13 16 51 33 38 50 56 59 57 60 70 72 75 83 81 72 65 63 58 52 46 54 69 70 76 82 88 86 82 73 65
32 37 27 27 47 8 16 26 45 39 46 35 16 34 45 25 32 43 53 57 53 55 63 67 71 74 81 82 73 64 63 57 49 45 51 59 66 74 84 90 89 82 75 67
14 28 40 51 22 24 41 43 50 53 51 45 50 50 36 44 44 51 52 57 59 61 67 67 70 72 78 83 76 66 62 56 49 43 45 53 66 74 83 89 89 83 77 70
15 16 18 24 38 54 44 39 43 51 53 50 51 56 48 51 52 54 55 62 62 62 66 70 72 70 76 82 80 70 63 54 46 42 43 50 63 74 81 88 88 85 81 74
9 16 39 64 66 60 67 60 53 57 59 61 64 67 64 57 56 54 60 61 62 60 67 74 75 70 73 79 77 69 62 54 40 40 41 48 58 71 79 89 90 87 82 77
14 30 37 49 62 64 60 58 62 51 57 64 65 71 66 63 56 53 59 63 57 60 67 77 73 72 74 74 71 66 57 48 37 37 38 47 56 72 80 85 88 86 80 77
25 48 39 46 56 39 34 45 45 49 56 58 60 64 60 51 49 52 56 58 60 65 71 73 73 74 73 69 64 59 53 42 33 32 36 44 50 63 69 75 77 77 73 68
19 32 42 42 27 21 32 29 25 27 28 36 37 39 34 38 47 56 62 63 61 64 70 73 73 76 68 65 58 50 46 39 33 32 36 43 49 57 67 70 67 69 67 63
19 34 27 25 25 42 43 47 46 44 43 43 44 44 47 50 60 65 66 61 61 66 71 72 73 76 62 59 54 45 38 33 31 33 38 41 46 51 58 67 69 70 69 67
26 31 29 32 40 42 43 48 52 52 52 52 48 50 48 55 63 66 62 59 63 68 70 70 69 66 55 52 48 38 30 28 25 26 32 35 42 46 50 55 57 58 59 62
40 30 28 40 43 43 46 46 52 55 55 57 57 54 53 55 59 61 60 61 62 63 61 58 59 49 47 42 36 27 23 20 17 16 25 31 35 41 44 47 49 49 51 54
44 49 56 58 58 62 60 57 55 55 56 53 53 52 52 53 53 52 51 47 47 47 46 48 42 40 35 29 21 18 18 21 22 20 24 29 34 36 38 41 43 45 46 41
29 36 41 47 57 62 65 58 53 51 52 52 48 46 45 43 43 40 35 35 37 40 38 35 34 29 24 20 15 14 19 27 28 30 31 33 37 40 41 43 44 45 46 46
39 46 47 49 49 52 54 52 50 48 45 42 41 37 34 31 30 28 26 28 29 29 27 25 22 17 16 17 19 22 25 29 34 36 36 39 41 42 44 45 43 40 38 39
50 49 49 49 43 42 46 43 45 42 38 36 29 26 25 22 17 13 11 11 12 14 14 12 11 14 16 19 23 26 29 34 39 42 43 44 45 47 45 41 39 37 36 35
57 51 45 45 41 35 34 36 36 33 30 26 20 16 15 10 6 5 4 2 3 3 6 10 14 19 21 23 27 34 38 42 43 44 43 44 45 45 43 42 41 39 38 35
50 46 39 34 32 30 29 30 27 24 21 16 12 10 10 11 13 12 11 17 17 17 18 20 24 25 28 31 37 41 45 48 50 52 53 53 54 55 55 53 52 50 47 45
37 33 28 26 26 25 24 22 22 20 17 17 16 16 16 17 19 23 31 32 34 33 37 39 39 40 44 50 54 57 59 61 63 63 62 61 60 59 58 56 54 50 47 45
26 22 23 20 19 16 18 21 21 22 22 23 26 29 30 34 38 42 43 42 45 48 51 50 49 50 53 58 61 63 65 65 65 63 62 61 61 60 58 56 54 51 49 46
24 21 19 16 17 20 20 20 22 25 27 30 32 34 38 41 45 44 42 43 46 49 53 52 53 56 60 63 65 66 66 65 64 62 61 60 58 57 55 52 50 48 45 42
21 22 22 21 22 22 23 22 26 29 30 33 35 36 36 37 40 42 43 46 48 51 53 54 54 56 59 60 61 61 61 59 57 55 53 51 48 46 43 41 38 36 32 30
21 19 20 23 25 23 22 22 22 25 23 25 29 32 34 36 37 38 40 42 45 48 50 51 51 51 51 50 50 49 47 45 43 40 38 36 33 30 28 25 23 19 17 15
Wind_Direction_850mb
250 265 279 274 268 252 223 202 206 269 264 271 278 289 303 314 313 321 333 338 346 342 340 338 336 337 338 336 335 334 318 274 252 250 250 245 239 233 228 223 220 219 217 217
279 241 250 261 256 253 251 231 240 259 265 267 265 278 290 296 301 304 321 328 328 342 337 334 334 334 331 331 328 327 321 301 267 246 248 245 240 234 227 222 219 216 216 219
256 227 271 279 238 238 241 216 204 242 254 288 268 271 270 287 292 285 308 313 311 333 333 332 331 332 329 328 325 322 318 307 284 251 242 242 238 232 226 222 219 217 216 217
253 51 249 258 187 215 226 234 229 253 261 247 239 272 285 286 286 274 295 301 308 323 325 328 328 327 325 325 322 319 316 310 292 260 240 237 235 231 225 222 220 219 217 217
243 231 264 284 280 226 203 252 233 238 249 256 270 277 273 291 253 261 293 299 307 313 316 323 325 324 324 322 319 317 315 308 297 266 243 234 231 227 223 221 219 219 218 218
241 246 252 261 255 245 252 260 256 248 265 263 263 252 257 278 257 283 294 301 306 305 307 315 320 320 323 321 316 316 314 306 295 270 246 236 230 225 221 220 220 219 218 218
243 256 253 250 260 167 220 247 250 243 248 258 252 258 272 266 273 291 303 304 303 299 304 309 315 316 321 320 314 314 312 303 291 269 247 238 231 225 221 219 220 219 219 219
256 259 266 233 264 208 245 261 265 270 265 262 272 276 259 266 278 304 304 300 298 294 301 306 311 314 319 319 315 309 309 302 284 266 249 238 229 225 220 220 220 219 218 217
246 250 279 273 233 254 252 255 267 266 272 275 276 279 264 268 284 302 298 299 301 301 300 301 309 312 316 319 314 306 308 304 282 263 249 240 231 224 221 218 220 220 219 218
317 271 249 269 286 283 277 278 274 279 282 282 274 277 269 269 283 293 294 298 303 303 297 301 306 308 313 316 311 301 304 302 280 256 248 240 234 226 221 217 217 219 219 220
261 281 280 257 258 267 280 286 287 286 282 281 278 276 273 276 280 286 292 295 297 298 294 299 300 304 311 314 307 298 300 298 277 253 247 241 234 228 220 220 221 219 220 222
266 278 281 283 297 310 293 291 293 298 295 292 278 275 273 273 281 286 287 288 294 295 295 294 296 302 308 310 301 293 295 295 267 254 247 241 232 230 227 226 223 225 228 231
280 285 290 299 309 299 324 312 308 302 293 282 280 282 287 280 279 285 286 289 290 290 289 291 294 299 305 304 294 286 286 284 263 240 245 237 230 229 223 219 217 223 225 224
295 323 307 309 314 311 307 302 300 296 292 286 283 281 281 279 281 280 282 286 283 283 286 290 292 297 302 294 286 280 275 269 260 235 231 231 229 225 224 221 211 209 212 215
331 337 313 309 308 309 310 310 306 303 300 295 290 291 287 282 278 279 281 279 279 282 286 288 292 295 295 285 279 272 263 261 254 234 217 221 223 220 219 218 215 213 211 211
327 334 330 330 331 328 324 320 319 315 309 303 299 294 290 285 283 283 283 277 277 281 283 287 289 295 288 275 268 256 248 239 240 224 201 201 207 209 206 208 207 207 205 207
342 339 334 328 327 324 324 324 320 317 314 310 306 301 297 293 288 287 284 279 277 279 284 285 291 286 277 262 246 239 221 193 194 189 177 177 182 187 191 193 193 193 199 204
324 317 314 311 313 315 316 320 319 317 315 313 310 307 305 299 297 293 284 274 275 280 278 281 284 274 257 231 210 211 196 185 177 174 166 163 165 171 175 176 175 177 176 179
327 320 315 312 314 311 314 317 318 318 317 314 310 308 310 309 301 294 285 279 274 269 267 272 267 243 227 209 194 190 175 168 163 156 155 154 156 157 160 163 163 166 169 172
322 317 316 315 315 313 314 318 322 323 323 321 315 304 306 306 305 306 303 289 278 263 255 238 215 201 194 174 172 167 164 159 151 147 148 149 150 150 152 156 157 159 161 164
322 323 319 318 320 322 322 326 327 330 334 334 335 332 334 334 330 318 321 357 34 134 154 158 162 156 150 149 150 148 149 145 143 141 142 140 139 136 136 137 138 138 138 141
323 323 326 325 327 331 333 335 340 343 347 354 4 15 30 62 68 66 76 87 85 100 112 124 125 125 128 134 133 132 128 126 125 125 124 124 123 122 121 121 120 120 120 119
325 328 334 338 341 342 344 354 9 14 24 39 47 56 65 75 85 97 91 89 94 97 101 102 104 111 116 116 115 114 113 113 113 113 113 113 113 113 113 113 112 112 112 112
340 344 344 348 357 10 24 31 36 42 51 64 72 78 83 89 89 87 88 91 93 97 95 96 101 105 107 108 109 109 110 109 109 109 109 109 109 108 107 107 107 106 104 104
3 4 9 15 27 37 45 52 64 72 78 82 85 88 90 88 86 86 89 93 97 98 98 102 105 106 105 105 105 104 104 104 104 105 105 105 105 105 104 104 103 102 102 101
8 20 29 40 48 54 62 72 80 82 84 86 85 86 91 94 97 100 101 102 102 102 102 103 102 102 102 103 103 103 102 102 103 102 102 101 101 101 100 100 99 98 97 95
36 47 54 62 67 69 75 78 79 78 81 88 93 96 98 101 102 104 105 106 107 106 106 106 105 104 104 103 103 103 102 102 101 100 100 100 99 98 98 97 95 96 94 90